Simultaneous Nadir Overpasses (SNOs) Predictions

Prediction of SNOs between METOP-B and TERRA Satellite Orbit:

Table of predicted SNOs for the next 14.0 days since TLE Epoch: 5/25/2024
Index Date (METOP-B) Time (METOP-B) Lat,Lon (METOP-B) SZA (METOP-B ) Date (TERRA) Time (TERRA) Lat,Lon (TERRA) SZA (TERRA ) Distance(km) Time Diff (sec)
1 05/26/2024 03:01:22 -79.55, -29.74 121.25 05/26/2024 03:02:36 -79.47, -29.42 121.29 11.51 74
2 05/26/2024 03:51:42 80.18, 143.45 59.71 05/26/2024 03:51:37 80.19, 143.57 59.72 2.19 5
3 05/28/2024 18:21:53 80.15, -74.43 59.23 05/28/2024 18:22:23 80.15, -74.47 59.23 1.05 30
4 05/28/2024 19:12:29 -80.30, 94.48 120.54 05/28/2024 19:11:41 -80.29, 94.37 120.57 2.44 48
5 05/31/2024 08:52:04 80.09, 67.31 58.73 05/31/2024 08:53:08 80.08, 67.25 58.74 1.30 64
6 05/31/2024 09:42:40 -80.23,-123.77 121.03 05/31/2024 09:42:26 -80.23,-123.88 121.05 2.28 14
7 06/03/2024 00:12:53 -80.14, 17.61 121.54 06/03/2024 00:13:12 -80.14, 17.65 121.53 0.75 19
8 06/03/2024 01:03:27 80.31,-173.19 58.75 06/03/2024 01:02:27 80.31,-173.23 58.72 0.79 60
9 06/05/2024 14:43:04 -80.08, 159.52 121.92 06/05/2024 14:43:56 -80.09, 159.52 121.91 0.10 52



Historial Predications of SNOs between METOP-B and TERRA
